Weather History for MROC - April, 2013

Change the Weather History Date:

Saturday, April 6, 2013

  Actual Average Record
Temperature  
Mean Temperature 77 °F -  
Max Temperature 88 °F 83 °F 93 °F (1998)
Min Temperature 66 °F 65 °F 62 °F (1998)
Cooling Degree Days 12    
Growing Degree Days 27 (Base 50)    
Moisture  
Dew Point 58 °F    
Average Humidity 53    
Maximum Humidity 78    
Minimum Humidity 26    
Precipitation  
Precipitation 0.00 in 0.15 in - ()
Sea Level Pressure  
Sea Level Pressure 29.98 in    
Wind  
Wind Speed 8 mph ()    
Max Wind Speed 15 mph    
Max Gust Speed 23 mph    
Visibility 8.5 miles    
Events      
Averages and records for this station are not official NWS values.
T = Trace of Precipitation, MM = Missing Value Source: Averaged Metar Reports

Daily Weather History Graph

Daily Weather History Graph

Search for Another Location

Airport or City:

Trip Planner

Search our weather history database for the weather conditions in past years. The results will help you decide how hot, cold, wet, or windy it might be!

Date:

Astronomy

Apr. 06, 2013 Rise Set
Actual Time 5:31 AM CST 5:47 PM CST
Civil Twilight 5:09 AM CST 6:08 PM CST
Nautical Twilight 4:45 AM CST 6:33 PM CST
Astronomical Twilight 4:20 AM CST 6:57 PM CST
Moon 2:34 AM CST (4/6) 2:48 PM CST (4/6)
Length of Visible Light 12h 58m
Length of Day
12h 16m
Waning Crescent, 14% of the Moon is Illuminated
Apr 6
Waning Crescent
Apr 10
New
Apr 18
First Quarter
Apr 25
Full
May 2
Last Quarter

Hourly Weather History & Observations

Time (CST) Temp. Heat Index Dew Point Humidity Pressure Visibility Wind Dir Wind Speed Gust Speed Precip Events Conditions
12:00 AM 70 °F - 63 °F 71% 29.87 in 12 mi ENE 9.2 mph - -   Scattered Clouds
12:00 AM 69.8 °F - 62.6 °F 78% 30.05 in 6.2 mi ENE 9.2 mph - N/A   Partly Cloudy
1:00 AM 71.6 °F - 62.6 °F 73% 30.00 in 6.2 mi ESE 9.2 mph - N/A   Partly Cloudy
2:00 AM 71.6 °F - 62.6 °F 73% 29.99 in 6.2 mi East 9.2 mph - N/A   Partly Cloudy
3:00 AM 72 °F - 61 °F 59% 29.85 in 12 mi ESE 8.1 mph - -  
3:00 AM 71.6 °F - 60.8 °F 69% 29.99 in - ESE 8.1 mph - N/A   Clear
4:00 AM 71.6 °F - 60.8 °F 69% 30.01 in - ESE 12.7 mph - N/A   Clear
5:00 AM 69.8 °F - 55.4 °F 60% 30.02 in - East 15.0 mph - N/A   Clear
6:00 AM 70 °F - 59 °F 60% 29.88 in 12 mi East 3.5 mph - -   Clear
6:00 AM 69.8 °F - 59.0 °F 68% 30.04 in - East 3.5 mph - N/A   Clear
7:00 AM 71.6 °F - 59.0 °F 64% 30.06 in - ESE 3.5 mph - N/A   Clear
8:00 AM 75.2 °F - 57.2 °F 53% 30.07 in - East 11.5 mph 23.0 mph N/A   Clear
9:00 AM 78 °F - 56 °F 37% 29.90 in 12 mi ESE 13.8 mph - -   Clear
9:00 AM 78.8 °F - 57.2 °F 47% 30.08 in - ESE 13.8 mph - N/A   Clear
10:00 AM 82.4 °F 81.7 °F 55.4 °F 39% 30.07 in - ENE 9.2 mph 20.7 mph N/A   Clear
11:00 AM 82.4 °F 81.7 °F 55.4 °F 39% 30.06 in - East 9.2 mph - N/A   Clear
12:00 PM 85 °F - 55 °F 26% 29.85 in 12 mi East 9.2 mph - -   Scattered Clouds
12:00 PM 84.2 °F 83.0 °F 55.4 °F 37% 30.04 in 6.2 mi East 9.2 mph - N/A   Partly Cloudy
1:00 PM 86.0 °F 84.5 °F 55.4 °F 35% 30.01 in 6.2 mi East 10.4 mph - N/A   Partly Cloudy
2:00 PM 87.8 °F 86.1 °F 55.4 °F 33% 29.97 in 6.2 mi ESE 10.4 mph - N/A   Partly Cloudy
3:00 PM 86 °F - 59 °F 30%  in 12 mi East 11.5 mph - -   Scattered Clouds
3:00 PM 86.0 °F 85.4 °F 59.0 °F 40% 29.95 in 6.2 mi East 11.5 mph - N/A   Partly Cloudy
4:00 PM 84.2 °F 83.5 °F 57.2 °F 40% 29.94 in 6.2 mi ENE 15.0 mph - N/A   Scattered Clouds
5:00 PM 80.6 °F 80.8 °F 57.2 °F 45% 29.95 in 6.2 mi East 6.9 mph - N/A   Scattered Clouds
6:00 PM 76 °F - 60 °F 47% 29.81 in 12 mi East 6.9 mph - -   Scattered Clouds
6:00 PM 77.0 °F - 59.0 °F 54% 29.98 in 6.2 mi East 6.9 mph - N/A   Scattered Clouds
7:00 PM 73.4 °F - 59.0 °F 61% 30.01 in 6.2 mi SE 8.1 mph - N/A   Partly Cloudy
8:00 PM 71.6 °F - 59.0 °F 64% 30.03 in 6.2 mi ESE 6.9 mph - N/A   Partly Cloudy
9:00 PM 72 °F - 59 °F 55% 29.86 in 12 mi SE 6.9 mph - -  
9:00 PM 71.6 °F - 59.0 °F 64% 30.04 in - SE 6.9 mph - N/A   Clear
10:00 PM 71.6 °F - 59.0 °F 64% 30.05 in - East 11.5 mph - N/A   Clear
11:00 PM 71.6 °F - 55.4 °F 57% 30.03 in - East 9.2 mph - N/A   Clear